Flag for United Kingdom Weather past 2 weeks in Cheltenham, England, United Kingdom

Now
79 °F

Passing clouds.


Feels Like: 79 °F
Forecast: 54 / 79 °F
Wind: 6 mph from Northeast

Location: Staverton Private

Current Time: Jul 25, 2014 at 8:21:28 PM

Latest Report: Jul 25, 2014 at 7:20 PM


Visibility: N/A

Pressure: 30.01 "Hg

Humidity: 42%

Dew point: 54 °F

Location of CheltenhamLocation

Historic Weather in Cheltenham — Graph

°F

Cheltenham temperature yesterday

Maximum temperature yesterday: 82 °F (at 3:50 PM)
Minimum temperature yesterday: 59 °F (at 6:50 AM)
Average temperature yesterday: 73 °F

Past Weeks' High & Low Weather Summary

 TemperatureHumidityPressure
High82 °F (Jul 23, 4:50 PM)94% (Jul 19, 9:20 AM)30.24 "Hg (Jul 19, 9:20 AM)
Low55 °F (Jul 14, 6:50 AM)35% (Jul 24, 3:50 PM)29.71 "Hg (Jul 19, 3:50 PM)
Average72 °F59%30.00 "Hg
* Reported Jul 10 6:20 PM — Jul 25 6:50 PM, Cheltenham, Weather by CustomWeather, © 2014

Note: Actual official high and low records may vary slightly from our data, if they occured in-between our weather recording intervals... More about our weather records

Advertising

Cheltenham weather history for previous 24 hours

 ConditionsComfort  
Time TempWeatherWind HumidityBarometerVisibility
6:50 PM
Jul 25
79 °FPassing clouds.7 mph42%30.01 "HgN/A
6:20 PM79 °FScattered showers. Passing clouds.9 mph42%30.01 "HgN/A
5:50 PM79 °FScattered showers. Passing clouds.13 mph42%30.01 "HgN/A
5:20 PM81 °FPassing clouds.5 mph37%30.01 "HgN/A
4:50 PM79 °FPassing clouds.6 mph45%30.01 "HgN/A
4:20 PM82 °FPassing clouds.8 mph37%30.01 "HgN/A
3:50 PM81 °FPassing clouds.9 mph42%30.04 "HgN/A
3:20 PM81 °FPassing clouds.5 mph37%30.04 "HgN/A
2:50 PM81 °FPassing clouds.5 mph39%30.04 "HgN/A
2:20 PM79 °FPassing clouds.8 mph48%30.04 "HgN/A
1:20 PM79 °FScattered clouds.7 mph48%30.04 "HgN/A
12:50 PM77 °FScattered clouds.8 mph51%30.04 "HgN/A
12:20 PM75 °FPassing clouds.8 mph57%30.07 "HgN/A
11:50 AM75 °FPassing clouds.8 mph57%30.07 "HgN/A
11:20 AM73 °FPassing clouds.7 mph61%30.07 "HgN/A
10:50 AM72 °FPassing clouds.7 mph65%30.07 "HgN/A
10:20 AM70 °FPassing clouds.6 mph69%30.07 "HgN/A
9:50 AM68 °FPassing clouds.6 mph69%30.09 "HgN/A
9:20 AM66 °FClear.5 mph73%30.09 "Hg6 mi
8:50 AM64 °FClear.6 mph78%30.09 "Hg6 mi
8:20 AM63 °FClear.6 mph77%30.09 "Hg6 mi
Weather by CustomWeather, © 2014

See weather overviewHow to use our weather pages